Temp
21 21 21 21 21 21 20 20 20 20 19 19 19 19 19 20 20 20 20 20 20 20 20 20 20 20 20 20 20 19 19 19 19 18 19 19 19 19 19 19 19 19
21 21 21 21 21 21 21 21 20 20 20 20 20 19 19 20 20 20 20 20 20 20 20 20 20 20 20 20 20 20 19 20 19 18 19 19 19 19 19 19 19 19
21 21 21 21 21 21 21 21 21 21 20 20 20 20 20 20 20 20 20 20 20 20 20 20 20 20 20 20 20 20 20 20 19 18 19 19 19 19 19 19 19 19
22 21 22 21 21 21 21 21 21 21 21 20 20 20 20 19 19 20 20 20 20 20 20 20 20 20 20 20 20 20 20 20 20 19 19 19 19 19 19 19 19 19
22 22 22 22 21 21 21 21 21 21 21 20 20 20 20 20 20 20 20 20 21 21 20 20 20 20 20 20 20 20 20 20 20 20 20 20 19 19 19 19 19 19
22 22 22 22 22 21 21 21 21 21 21 21 21 21 21 21 21 20 19 20 20 20 20 20 20 20 20 20 20 20 20 20 19 20 20 20 20 19 19 19 20 20
22 22 22 22 22 22 22 22 22 21 21 21 21 21 21 21 21 21 20 20 20 19 19 19 20 21 20 20 21 20 20 20 20 20 20 20 20 20 19 19 20 20
22 22 22 22 22 22 22 22 22 22 22 21 21 21 22 22 22 21 21 21 20 19 19 19 20 21 21 20 21 21 21 21 20 20 21 20 20 21 20 20 20 21
22 22 22 22 22 22 21 21 21 22 22 22 22 21 22 22 22 21 21 21 21 20 20 20 21 21 21 20 21 21 21 21 20 20 21 21 21 21 21 20 21 21
23 22 22 22 22 21 21 21 21 21 22 22 22 21 21 22 22 22 21 22 22 21 21 21 21 21 21 20 21 21 21 21 21 21 21 21 21 21 20 20 20 21
23 23 22 22 22 21 21 21 21 21 21 22 22 22 21 21 22 22 22 22 22 22 22 22 22 21 21 21 20 21 21 21 21 22 22 22 21 21 21 21 21 21
22 22 22 22 22 22 21 21 21 21 21 21 22 22 21 21 22 22 22 22 22 22 22 22 22 22 22 22 21 20 21 21 21 22 22 22 22 22 22 22 22 22
22 22 22 22 22 22 22 21 21 21 21 21 21 22 22 21 21 22 22 22 22 22 22 22 22 22 22 22 22 21 21 21 21 21 22 22 22 22 22 22 22 22
22 22 22 22 22 22 22 22 21 21 21 21 21 21 21 21 21 21 22 23 22 22 22 22 22 22 22 22 22 22 21 22 22 22 22 21 22 22 22 22 22 22
21 21 21 22 22 23 23 22 22 21 21 21 21 21 21 21 21 21 21 22 23 23 22 22 22 22 22 22 22 22 22 22 22 22 22 22 22 22 22 22 22 22
22 21 21 21 22 23 23 23 22 22 21 21 21 22 22 21 21 21 21 21 22 22 23 23 22 22 22 22 22 22 22 22 22 22 23 22 22 22 22 22 22 22
21 22 22 22 22 22 22 23 22 22 22 22 22 22 22 22 22 21 21 21 21 21 22 23 22 22 23 23 23 23 22 22 22 22 23 23 23 23 23 22 22 22
20 21 22 22 22 22 22 22 22 22 22 22 22 22 22 22 22 22 22 21 21 21 21 21 22 22 23 23 23 23 23 22 22 22 22 22 22 23 23 23 23 22
20 20 21 22 22 22 22 22 21 21 21 21 21 21 21 21 22 22 22 22 21 21 21 21 21 22 23 23 23 23 23 23 22 22 22 21 22 22 23 23 23 23
20 20 20 21 21 21 21 21 21 21 21 21 20 20 20 21 22 22 22 22 22 21 21 21 21 21 22 23 24 24 23 23 23 23 22 22 22 22 22 23 23 23
20 20 20 20 21 21 21 21 21 21 21 21 21 20 19 20 21 21 21 21 22 22 21 21 21 21 22 22 23 24 23 23 23 23 23 23 22 22 22 23 23 23
19 19 19 20 20 20 20 20 21 21 21 21 21 20 19 20 19 19 19 20 21 21 21 21 21 21 22 22 22 23 23 23 23 23 23 23 23 23 23 23 23 23
19 19 19 19 20 20 20 20 20 21 21 21 20 20 20 20 20 19 19 19 19 20 20 21 21 21 21 22 22 22 22 22 22 22 22 22 22 22 22 22 23 23
19 19 19 19 19 19 19 20 20 20 20 20 20 20 21 21 21 20 19 19 19 19 19 20 21 22 21 22 22 22 21 21 21 21 21 21 22 22 22 22 23 23
18 18 19 19 19 19 19 19 19 20 20 20 20 20 20 21 21 21 21 21 20 20 20 20 20 21 22 22 22 22 22 21 21 21 21 21 21 22 22 22 22 23
17 18 18 19 19 19 19 19 19 19 19 19 20 19 19 20 21 21 21 21 21 21 21 21 20 21 21 22 22 22 22 21 21 21 21 21 21 21 21 21 22 23
Height
1584 1585 1587 1589 1591 1593 1594 1596 1597 1598 1599 1601 1602 1603 1603 1604 1605 1605 1606 1607 1608 1608 1609 1609 1610 1610 1611 1611 1612 1612 1613 1613 1614 1614 1614 1614 1614 1615 1615 1615 1616 1616
1582 1584 1586 1588 1589 1591 1593 1594 1596 1597 1598 1599 1601 1602 1603 1603 1604 1604 1605 1606 1607 1608 1608 1609 1609 1610 1610 1611 1611 1612 1612 1613 1614 1614 1614 1614 1614 1615 1615 1615 1616 1616
1580 1582 1583 1586 1587 1589 1591 1593 1594 1596 1597 1598 1599 1600 1601 1602 1603 1603 1604 1605 1606 1607 1607 1608 1609 1609 1610 1610 1611 1611 1612 1612 1613 1614 1614 1613 1614 1615 1615 1616 1616 1616
1577 1580 1581 1584 1586 1588 1590 1591 1592 1594 1595 1597 1598 1599 1600 1601 1602 1602 1603 1604 1605 1606 1606 1607 1608 1608 1609 1609 1610 1611 1611 1611 1612 1613 1613 1613 1613 1614 1614 1615 1616 1616
1575 1577 1579 1582 1584 1586 1587 1589 1591 1592 1594 1595 1596 1597 1598 1599 1600 1601 1602 1603 1604 1605 1605 1606 1607 1607 1608 1609 1609 1610 1610 1611 1611 1612 1612 1612 1613 1613 1614 1614 1614 1615
1573 1575 1577 1579 1581 1583 1585 1587 1589 1590 1592 1593 1595 1596 1597 1598 1599 1600 1601 1601 1602 1604 1604 1605 1606 1606 1607 1608 1608 1609 1609 1610 1611 1611 1611 1611 1612 1613 1614 1614 1614 1614
1571 1573 1575 1577 1579 1581 1583 1585 1587 1588 1590 1592 1593 1594 1595 1596 1597 1598 1599 1600 1601 1602 1603 1604 1604 1605 1606 1607 1607 1608 1608 1609 1610 1610 1610 1611 1611 1612 1612 1613 1613 1613
1569 1571 1573 1575 1577 1579 1580 1582 1584 1586 1588 1589 1590 1592 1593 1594 1595 1597 1598 1598 1600 1601 1602 1603 1603 1604 1605 1605 1606 1606 1607 1608 1608 1609 1609 1610 1610 1610 1611 1611 1611 1612
1567 1569 1571 1573 1575 1577 1578 1580 1582 1583 1585 1586 1588 1590 1591 1592 1593 1595 1596 1597 1598 1599 1600 1601 1602 1602 1603 1604 1604 1605 1606 1607 1607 1608 1608 1608 1609 1609 1610 1610 1610 1610
1564 1566 1569 1571 1573 1575 1576 1578 1580 1581 1582 1584 1586 1588 1589 1590 1591 1593 1594 1594 1596 1597 1597 1599 1600 1601 1602 1602 1603 1603 1604 1605 1606 1606 1607 1607 1607 1608 1608 1608 1608 1609
1561 1564 1566 1568 1570 1573 1574 1576 1578 1580 1581 1581 1583 1585 1587 1588 1589 1590 1591 1592 1593 1595 1596 1597 1598 1599 1600 1600 1601 1602 1603 1603 1604 1604 1605 1605 1606 1606 1606 1607 1607 1607
1558 1561 1563 1565 1568 1570 1572 1574 1576 1578 1579 1579 1580 1582 1584 1585 1586 1588 1589 1590 1591 1593 1594 1595 1596 1597 1597 1598 1600 1600 1601 1602 1602 1603 1603 1604 1604 1604 1605 1605 1605 1605
1555 1558 1560 1562 1565 1567 1570 1572 1574 1576 1577 1578 1578 1579 1581 1583 1584 1585 1586 1588 1589 1591 1592 1593 1593 1594 1595 1596 1598 1599 1599 1600 1601 1601 1602 1602 1602 1603 1603 1604 1604 1604
1553 1556 1557 1560 1562 1564 1566 1569 1571 1573 1574 1576 1577 1577 1579 1581 1582 1583 1584 1585 1587 1588 1589 1590 1591 1592 1593 1594 1595 1596 1597 1598 1599 1599 1600 1600 1601 1601 1602 1602 1602 1603
1551 1553 1555 1557 1559 1561 1563 1565 1568 1570 1571 1573 1574 1575 1576 1578 1580 1581 1582 1583 1584 1585 1587 1588 1589 1589 1590 1591 1592 1594 1595 1596 1597 1597 1598 1598 1599 1599 1600 1600 1600 1601
1548 1550 1552 1554 1555 1557 1559 1562 1564 1566 1568 1569 1570 1572 1573 1575 1576 1578 1579 1580 1581 1582 1584 1585 1586 1586 1587 1588 1590 1591 1593 1594 1594 1595 1595 1596 1596 1596 1597 1598 1598 1599
1544 1546 1549 1550 1552 1554 1556 1558 1560 1563 1564 1565 1567 1568 1570 1571 1573 1574 1576 1577 1578 1579 1580 1581 1582 1583 1584 1585 1587 1589 1590 1591 1592 1592 1592 1593 1593 1593 1594 1595 1595 1596
1541 1543 1545 1547 1549 1550 1552 1555 1556 1559 1561 1562 1563 1565 1566 1567 1569 1570 1572 1574 1575 1576 1577 1578 1579 1580 1581 1582 1584 1585 1587 1588 1589 1589 1589 1589 1590 1590 1591 1591 1592 1593
1539 1540 1541 1543 1545 1547 1549 1551 1552 1555 1557 1558 1560 1561 1562 1564 1565 1566 1568 1569 1571 1573 1573 1574 1575 1576 1577 1578 1580 1582 1584 1585 1585 1586 1586 1586 1586 1587 1587 1588 1588 1589
1536 1537 1538 1540 1542 1543 1545 1547 1548 1550 1552 1554 1556 1558 1559 1560 1561 1563 1564 1565 1567 1568 1569 1570 1572 1572 1573 1574 1576 1578 1580 1581 1582 1582 1582 1582 1583 1583 1583 1584 1584 1585
1533 1535 1536 1537 1538 1540 1541 1543 1544 1547 1548 1550 1552 1554 1555 1556 1557 1558 1560 1561 1562 1564 1565 1566 1567 1568 1569 1570 1572 1574 1575 1577 1577 1577 1577 1578 1578 1579 1579 1580 1580 1581
1530 1531 1533 1534 1536 1537 1538 1539 1541 1543 1544 1546 1548 1550 1551 1552 1553 1554 1555 1556 1558 1559 1560 1562 1563 1564 1565 1566 1568 1569 1571 1572 1572 1572 1572 1573 1573 1574 1574 1575 1576 1576
1527 1528 1529 1531 1533 1534 1535 1536 1537 1538 1540 1542 1543 1545 1547 1548 1549 1550 1550 1551 1553 1554 1555 1556 1558 1560 1561 1562 1564 1565 1566 1567 1567 1567 1567 1567 1568 1569 1570 1570 1570 1571
1525 1526 1527 1529 1530 1531 1532 1533 1534 1535 1536 1537 1538 1540 1542 1543 1545 1546 1546 1546 1546 1548 1549 1551 1552 1554 1556 1557 1559 1560 1561 1562 1563 1563 1563 1563 1563 1564 1565 1565 1565 1566
1523 1524 1525 1526 1527 1528 1530 1531 1532 1532 1533 1534 1535 1536 1537 1538 1540 1541 1542 1542 1541 1541 1542 1544 1545 1548 1550 1551 1553 1555 1556 1557 1558 1558 1558 1558 1559 1559 1559 1560 1560 1560
1520 1521 1523 1524 1525 1526 1527 1528 1528 1529 1530 1531 1532 1533 1533 1534 1534 1536 1537 1538 1539 1538 1537 1537 1538 1540 1543 1545 1547 1549 1551 1552 1553 1553 1553 1553 1554 1554 1554 1554 1555 1555
Wind_Speed
25 24 22 21 20 20 21 20 19 18 17 15 12 12 12 12 11 10 10 9 9 9 9 8 8 7 6 6 6 6 6 6 5 5 5 4 4 4 4 4 5 5
25 25 24 23 22 21 21 21 20 19 19 17 14 13 13 13 11 11 11 10 10 9 9 9 8 8 7 7 7 6 7 7 6 5 5 5 4 4 4 4 4 5
24 25 25 24 23 22 20 20 21 21 20 19 17 16 15 13 13 13 12 11 11 11 10 10 9 9 9 8 8 7 7 8 7 7 7 6 5 4 4 4 4 4
23 24 25 25 24 23 21 20 21 20 20 19 18 18 16 14 14 14 13 12 12 12 11 11 11 10 10 9 9 8 8 8 8 8 9 8 6 6 5 5 5 5
23 23 24 24 25 25 23 23 22 20 19 19 19 18 18 17 16 15 14 14 13 13 12 12 12 12 11 10 10 10 9 9 8 9 9 8 7 6 5 6 6 6
23 22 22 23 24 25 26 25 23 21 19 19 19 19 19 19 18 16 16 16 15 13 13 13 13 13 12 12 11 11 10 9 9 10 9 9 9 7 6 7 7 6
25 23 22 22 23 24 26 26 25 23 21 20 20 20 20 20 19 18 18 17 15 14 13 14 14 14 13 13 13 12 11 11 11 11 10 10 10 9 9 9 8 7
26 25 23 22 22 23 24 25 25 25 24 22 21 21 21 21 21 20 19 19 17 16 16 16 15 15 14 15 15 14 13 12 11 11 11 11 11 10 10 10 9 8
27 27 26 23 22 23 23 23 24 25 25 24 22 21 21 21 22 21 21 21 19 18 19 18 18 17 16 16 17 16 15 14 13 13 12 12 12 12 11 11 10 10
27 27 27 26 24 24 23 22 23 24 25 25 24 23 22 22 22 22 22 23 21 21 20 20 20 20 19 18 19 18 17 16 16 15 14 14 14 13 12 12 11 11
28 27 28 27 26 25 24 23 22 22 23 25 25 24 23 23 23 23 23 24 23 22 22 21 21 21 21 21 20 20 20 18 17 16 15 15 14 14 13 13 12 12
29 28 28 28 27 26 25 23 23 22 22 23 25 25 24 24 24 24 24 24 23 23 23 22 22 22 22 22 22 21 21 20 18 17 16 15 15 14 14 14 14 14
28 29 29 28 28 27 26 24 23 23 23 23 23 24 24 24 24 25 25 24 24 23 24 23 23 23 23 24 23 23 23 22 19 18 17 16 16 15 15 15 15 15
26 27 28 28 28 28 27 26 25 24 24 24 24 24 24 24 23 24 25 25 25 24 25 25 25 24 24 24 25 25 25 24 22 20 20 19 18 17 17 16 16 16
26 25 26 28 29 29 28 28 27 26 25 25 26 25 24 24 23 23 24 25 26 26 26 26 27 27 26 26 26 26 26 25 24 23 23 22 22 21 20 19 19 18
27 26 27 29 30 29 28 27 28 28 27 27 28 27 26 25 25 24 24 24 26 27 28 28 29 29 30 29 28 27 27 27 26 26 26 25 25 24 23 22 22 20
27 27 28 29 30 30 28 27 27 28 29 30 29 29 28 27 27 27 26 25 25 26 28 30 31 32 32 32 31 30 29 29 29 29 29 28 28 28 27 26 25 24
27 27 27 27 28 29 28 28 28 29 30 31 31 30 30 29 28 28 28 27 26 26 27 29 30 32 35 34 33 32 32 31 31 31 31 31 31 31 31 30 29 28
25 26 27 26 25 26 27 28 29 29 29 30 30 30 30 31 29 28 28 28 28 28 28 29 30 32 35 35 34 34 34 33 34 34 33 32 32 33 33 33 33 32
23 23 25 25 25 26 27 28 28 27 27 29 29 28 30 31 31 30 30 29 29 29 30 30 30 32 35 36 35 34 35 35 35 36 36 36 35 35 35 35 35 34
21 19 20 21 23 25 26 27 27 25 25 27 27 26 26 27 29 29 30 30 30 29 29 30 30 30 32 34 34 35 35 36 37 38 39 39 39 38 38 37 37 36
18 18 18 19 20 22 25 26 26 25 25 25 25 24 24 24 24 24 25 27 29 29 29 30 30 30 30 31 32 33 34 35 37 39 40 41 41 40 40 39 39 38
17 17 17 17 18 20 23 25 26 25 25 25 25 25 25 25 24 22 21 22 24 26 29 30 30 30 31 30 30 31 31 32 34 36 39 40 41 41 41 41 41 40
19 17 16 16 17 19 20 22 24 25 25 25 25 25 25 26 25 24 24 23 22 22 25 28 29 30 30 30 30 30 30 31 32 33 36 38 40 41 41 42 43 42
25 23 20 18 17 19 20 20 22 24 25 26 27 26 24 24 24 25 27 27 26 24 24 26 28 29 29 30 30 30 30 31 31 33 35 37 38 40 41 42 43 44
24 24 23 23 21 20 20 20 21 23 24 25 27 25 23 23 24 25 27 29 29 28 27 27 27 28 30 30 30 30 31 31 32 33 35 36 37 38 40 41 42 44
Wind_Direction
222 223 223 223 222 222 221 220 218 215 212 212 215 220 222 218 213 212 216 221 220 217 216 214 212 209 209 217 216 217 221 204 200 228 225 202 201 202 210 209 204 209
224 224 224 225 225 224 224 223 221 219 218 217 215 219 223 220 215 213 214 217 219 221 221 219 219 217 214 219 222 223 231 226 212 223 237 225 211 211 215 215 220 221
225 226 225 225 226 227 226 227 227 223 222 222 220 221 224 222 220 217 215 215 217 220 222 222 222 224 221 222 227 226 229 232 218 218 241 242 223 220 218 213 222 232
226 226 227 226 227 228 228 229 230 227 224 223 222 223 224 225 225 220 215 216 219 220 222 223 224 227 227 225 230 231 230 232 225 221 236 243 233 227 222 214 213 219
226 225 226 227 227 229 229 229 230 229 227 225 223 223 224 225 226 223 219 218 220 223 224 224 225 227 228 228 230 234 234 234 238 235 234 235 237 233 231 232 222 217
227 225 225 226 226 228 229 229 230 230 229 228 225 224 225 226 226 226 227 223 221 225 227 228 229 228 228 229 230 234 235 231 236 242 238 233 233 228 230 240 237 230
229 227 225 225 226 227 230 230 230 230 230 230 228 226 224 224 224 226 229 229 226 226 227 229 232 231 230 231 230 232 235 230 231 237 238 236 234 228 227 237 243 242
230 230 228 226 226 228 230 231 231 231 231 231 232 230 226 224 224 225 229 231 230 229 231 232 233 232 232 233 233 233 234 234 235 239 239 237 237 234 232 236 242 244
232 232 232 229 228 229 229 230 230 231 232 232 233 233 231 228 225 225 229 231 231 232 234 235 235 232 232 235 237 236 235 235 235 239 240 238 238 237 236 239 242 245
233 233 234 233 231 229 228 227 227 230 233 233 232 232 234 233 229 227 230 232 231 232 235 235 235 234 233 234 239 240 239 239 239 240 240 239 239 237 236 239 242 244
232 232 233 234 233 230 228 227 224 224 230 234 233 230 230 235 235 231 231 232 231 231 234 235 235 235 235 234 238 241 242 243 245 245 241 238 238 238 237 239 241 244
231 232 232 232 234 232 227 226 224 222 225 232 235 232 229 232 237 237 234 234 232 231 233 236 236 236 237 236 236 240 242 244 245 245 243 239 237 239 240 243 245 247
229 231 233 232 233 234 230 226 226 224 224 228 234 237 233 230 234 240 240 238 236 234 233 235 236 236 237 237 236 237 240 241 241 243 245 244 243 243 244 246 248 250
228 228 232 234 234 237 236 232 229 228 227 228 232 237 237 233 232 238 243 243 241 238 237 238 238 236 236 237 236 235 237 240 241 243 245 248 250 250 249 249 250 251
231 226 228 236 239 240 240 238 236 235 234 234 236 239 240 236 232 232 239 244 244 242 240 240 241 240 237 235 234 233 234 238 242 244 245 248 251 253 253 253 253 252
241 237 233 238 243 244 243 242 241 240 239 240 242 245 245 243 239 235 234 238 244 245 243 241 242 242 240 236 234 233 234 236 240 244 246 247 250 253 253 255 256 256
245 247 244 243 246 249 247 245 245 244 243 244 247 249 248 247 246 244 240 237 239 242 244 243 243 243 243 239 236 235 235 237 240 243 246 248 249 252 254 255 256 258
243 249 250 248 248 251 251 250 250 250 249 249 251 252 252 251 250 249 247 242 240 240 242 243 244 245 245 243 240 238 237 238 241 244 247 249 251 252 254 255 257 258
241 247 252 253 251 251 253 253 254 253 253 253 253 253 254 255 254 253 252 249 245 243 244 244 245 247 248 246 243 242 240 240 243 245 248 250 252 253 255 256 256 257
238 243 250 254 255 253 253 253 253 254 255 255 254 253 255 258 258 258 258 256 252 249 249 248 247 249 250 249 246 244 243 243 243 245 247 249 251 254 255 256 256 256
235 238 242 247 252 254 254 253 253 254 254 256 255 252 252 257 261 262 262 262 260 257 255 254 252 251 252 251 248 245 244 244 245 245 247 248 250 252 253 254 255 255
229 232 234 238 245 249 251 253 253 253 253 256 256 251 246 247 252 256 259 261 264 265 264 261 257 255 254 252 250 248 246 246 246 246 246 247 248 250 251 252 253 253
225 228 232 236 241 245 248 252 254 253 252 254 255 253 251 248 244 243 248 253 258 263 267 266 262 258 256 253 251 250 248 247 246 246 246 247 248 249 250 251 251 251
233 235 238 241 242 243 245 248 251 253 253 254 254 252 252 253 249 245 244 242 241 247 257 263 263 260 258 254 251 249 249 248 247 247 247 248 248 249 249 250 251 251
237 240 243 246 247 247 247 247 250 253 254 255 256 252 248 249 250 251 251 246 238 235 240 250 256 257 256 253 249 247 246 246 246 247 247 247 248 249 249 250 251 252
240 242 246 249 251 253 253 252 252 253 252 252 254 251 249 248 246 246 249 249 245 241 237 238 242 248 252 252 249 247 246 245 246 247 247 247 247 248 249 250 251 251